Regional Weather Roundup
Issued by NWS

Home | Current Version | Previous Version | Text Only | Print | Product List | Glossary On
Versions: 1 2 3 4 5 6 7 8 9 10 11 12 13 14 15 16 17 18 19 20 21 22 23 24 25 26 27 28 29 30 31 32 33 34 35 36 37 38 39 40 41 42 43 44 45 46 47 48 49 50
075
ASUS44 KJAN 162303
RWRMS

MISSISSIPPI HOURLY WEATHER ROUNDUP
NATIONAL WEATHER SERVICE JACKSON MS
500 PM CST TUE DEC 16 2014

NOTE: "FAIR: INDICATES FEW OR NO CLOUDS BELOW 12,000 FEET WITH NO
SIGNIFICANT WEATHER AND/OR OBSTRUCTIONS TO VISIBILITY.

MSZ001>002-007>008-010>013-018>021-025>028-034>036-170000-
NORTHWEST MISSISSIPPI

CITY           SKY/WX    TMP DP  RH WIND       PRES   REMARKS
CLARKSDALE     FAIR      48  39  71 CALM      30.24R
CLEVELAND      FAIR      48  40  73 N7        30.23S
GREENWOOD      CLEAR     49  36  61 NW3       30.23R
GREENVILLE     CLEAR     48  36  63 N6        30.23R
GRENADA        FAIR      45  36  70 CALM      30.23R
OLIVE BRANCH   CLOUDY    45  37  76 NW10G17   30.23
OXFORD         FAIR      46  34  61 W8        30.23R
TUNICA         PTCLDY    45  36  70 N7        30.24R
$$

MSZ003>006-009-014>017-022>024-029>033-037>039-170000-
NORTHEAST MISSISSIPPI

CITY           SKY/WX    TMP DP  RH WIND       PRES   REMARKS
COLUMBUS AFB   CLEAR     48  35  62 W7        30.19R
CORINTH        CLOUDY    48  36  61 NW14      30.20R
GOLDN TRIANGLE CLEAR     50  36  57 NW7       30.19R
STARKVILLE     FAIR      46  36  66 CALM      30.20R
TUPELO         CLEAR     50  35  56 NW5       30.19R
$$

MSZ040-058-170000-
CENTRAL MISSISSIPPI

CITY           SKY/WX    TMP DP  RH WIND       PRES   REMARKS
JACKSON INTL   PTCLDY    51  34  52 NW7       30.21S
JACKSON HAWKNS CLEAR     51  35  54 N6        30.22R
MERIDIAN KEY   CLEAR     50  36  58 NW6       30.20R
MERIDIAN NAS   CLEAR     51  36  56 NW8       30.20R
RAYMOND        FAIR      50  46  87 MISG      30.22R
VICKSBURG      CLEAR     51  35  54 NW3       30.24R
$$

MSZ059>079-170000-
SOUTH MISSISSIPPI

CITY           SKY/WX    TMP DP  RH WIND       PRES   REMARKS
HATTIESBURG    CLEAR     57  36  45 NW8       30.19R
MCCOMB         CLEAR     54  36  50 NW10      30.20R
NATCHEZ        CLEAR     52  34  50 N3        30.23R
PINE BELT      CLEAR     54  36  50 NW5       30.20R
$$

MSZ080>082-170000-
COASTAL MISSISSIPPI

CITY           SKY/WX    TMP DP  RH WIND       PRES   REMARKS
BAY ST LOUIS   CLEAR     59  34  38 NW6       30.17R
BILOXI         CLEAR     62  39  43 NW6       30.16R
PASCAGOULA     CLEAR     59  37  44 W5        30.15R
GULFPORT       CLEAR     60  37  42 NW7       30.16R
$$



USA.gov is the U.S. government's official web portal to all federal, state and local government web resources and services.